Location: Carrières
(48.9495°N, 2.0407°E)
Time: 07:27:43
(UTC+00:00)

Tiros 1 despin weight - Pass Details

Date: 22 April 2024
Orbit: 578 x 621 km, 48.2° (Epoch: 25 May)

Event Time Altitude Azimuth Distance (km) Brightness Sun altitude
Rises 16:51:08 0° 283° (WNW) 2,867 ? 19.1°
Reaches altitude 10° 16:53:32 10° 275° (W) 1,967 ? 18.7°
Maximum altitude 16:57:44 39° 207° (SSW) 932 ? 18.0°
Drops below altitude 10° 17:01:57 10° 139° (SE) 1,979 ? 17.3°
Sets 17:04:23 0° 132° (SE) 2,885 ? 16.9°
